Regional Weather Roundup
Issued by NWS

Home | Current Version | Previous Version | Text Only | Print | Product List | Glossary Off
Versions: 1 2 3 4 5 6 7 8 9 10 11 12 13 14 15 16 17 18 19 20 21 22 23 24 25 26 27 28 29 30 31 32 33 34 35 36 37 38 39 40 41 42 43 44 45 46 47 48 49 50

597
ASUS43 KIND 141209
RWRIN

WEATHER ROUNDUP FOR INDIANA
NATIONAL WEATHER SERVICE INDIANAPOLIS IN
700 AM EST SUN FEB 14 2016

NOTE: "FAIR" INDICATES FEW OR NO CLOUDS BELOW 12,000 FEET WITH NO
SIGNIFICANT WEATHER AND/OR OBSTRUCTIONS TO VISIBILITY.

* - STATION DOES NOT REPORT WEATHER SUCH AS PRECIPITATION OR FOG.

+ - STATION NOT QUALITY CONTROLLED BY THE NATIONAL WEATHER SERVICE.
    USE DATA WITH CAUTION...ESPECIALLY DEWPOINT AND RELATIVE
    HUMIDITY OBSERVATIONS.

INZ001>003-010>013-019-020-141300-
NORTHWEST INDIANA

CITY           SKY/WX    TMP DP  RH WIND       PRES   REMARKS
GARY /AIRPORT/ MOCLDY    16   1  53 SE6       30.41F WCI   7
KNOX *+        PTCLDY     7   1  78 SE6       30.42F WCI  -3
LA PORTE +     CLOUDY     3   0  85 SE3       30.41F
6HR MIN TEMP:  -1; 6HR MAX TEMP:   6;

MICHIGAN CITY+ PTCLDY     9   1  72 CALM      30.43S
MONTICELLO +   CLOUDY    13   0  56 SE6       30.41F WCI   4
6HR MIN TEMP:  11; 6HR MAX TEMP:  13;

RENSSELAER +   CLOUDY    14   1  57 SE8       30.41S WCI   3
VALPARAISO     PTCLDY    11   3  70 SE8       30.40F WCI  -1
6HR MIN TEMP:   5; 6HR MAX TEMP:  11;


$$

LMZ046-743>745-141300-
SOUTHERN LAKE MICHIGAN

STATION/POSITION TIME  TEMP    WIND        PRES    WAVE
                       AIR SEA DIR/SP/G            HT
                 (UTC) (F)     (DEG/KT/KT) (MB)    (FT)
BURNS HARBOR     1100   12     150/  7/ 16 1030.8S
MICHIGAN CITY    1100    9     140/  9/ 11   N/A

$$

INZ004-005-014>016-021>024-141300-
NORTH CENTRAL INDIANA

CITY           SKY/WX    TMP DP  RH WIND       PRES   REMARKS
GOSHEN         CLOUDY     3  -1  83 SE5       30.42F WCI  -6
6HR MIN TEMP:   0; 6HR MAX TEMP:  10;

LOGANSPORT +   CLOUDY    12   1  62 SE9       30.43F WCI   0
PERU/GRISSOM   CLOUDY    11   4  71 SE9       30.40F WCI  -1
6HR MIN TEMP:   8; 6HR MAX TEMP:  12;

ROCHESTER +    CLOUDY     3  -4  72 E5        30.43F WCI  -6
SOUTH BEND     CLOUDY     2  -2  83 SE3       30.43S
6HR MIN TEMP:  -1; 6HR MAX TEMP:   7;

WARSAW +       CLOUDY     3   0  85 CALM      30.43S

$$

INZ006>009-017-018-025>027-141300-
NORTHEAST INDIANA

CITY           SKY/WX    TMP DP  RH WIND       PRES   REMARKS
ANGOLA *+      CLEAR      1  -2  85 CALM      30.39F
AUBURN +       CLOUDY     7   3  85 CALM      30.43S
FORT WAYNE     CLOUDY     5   1  83 SE3       30.45S
6HR MIN TEMP:   4; 6HR MAX TEMP:   7;

HUNTINGTON +   CLOUDY     3  -3  76 CALM      30.44R
6HR MIN TEMP:   2; 6HR MAX TEMP:   4;


$$

INZ028-029-035-036-043>045-051>053-141300-
WEST CENTRAL INDIANA

CITY           SKY/WX    TMP DP  RH WIND       PRES   REMARKS
CRAWFORDSVL +  MOCLDY    13   0  55 SE9       30.40F WCI   1
6HR MIN TEMP:  12; 6HR MAX TEMP:  14;

GREENCASTLE +  CLOUDY    16   0  48 SE10      30.41S WCI   3
LAFAYETTE      CLOUDY    13   2  61 SE10      30.41F WCI   0
6HR MIN TEMP:  12; 6HR MAX TEMP:  13;

TERRE HAUTE    LGT SNOW  15  11  83 SE8       30.41F FOG     WCI   4
6HR MIN TEMP:  15; 6HR MAX TEMP:  18; 6HR PCP: TRACE;


$$

INZ030>032-037>040-046>048-054>057-064-065-141300-
CENTRAL INDIANA

CITY           SKY/WX    TMP DP  RH WIND       PRES   REMARKS
FRANKFORT +    CLOUDY    14  -3  46 SE10      30.42S WCI   1
6HR MIN TEMP:  12; 6HR MAX TEMP:  14;

GREENWOOD *+   CLOUDY    14   7  73 SE7       30.42F WCI   4
INDIANAPOLIS   FLURRIES  14   4  64 SE13      30.40F WCI   0
6HR MIN TEMP:  14; 6HR MAX TEMP:  15; 6HR PCP: TRACE;

-EAGLE CREEK   CLOUDY    14   2  58 SE9       30.41F WCI   2
6HR MIN TEMP:  13; 6HR MAX TEMP:  14;

KOKOMO *+      CLOUDY    10   1  67 SE10      30.41F WCI  -3
6HR MIN TEMP:   7; 6HR MAX TEMP:  12;

MARION +       CLOUDY    10  -3  57 E7        30.43F WCI  -2
MT COMFORT *+  CLOUDY    12   3  67 SE8       30.42F WCI   1
SHELBYVILLE    CLOUDY    14   3  61 SE9       30.42F WCI   2
6HR MIN TEMP:  13; 6HR MAX TEMP:  15;

ZIONSVILLE +   CLOUDY    13   2  63 SE7       30.41S WCI   2
6HR MIN TEMP:  11; 6HR MAX TEMP:  13;


$$

INZ033-034-041-042-049-050-058-059-141300-
EAST CENTRAL INDIANA

CITY           SKY/WX    TMP DP  RH WIND       PRES   REMARKS
MUNCIE         CLOUDY    11   2  67 SE8       30.42F WCI  -1
6HR MIN TEMP:   6; 6HR MAX TEMP:  11;


$$

INZ060-061-067>069-081>083-085>088-141300-
SOUTHWEST INDIANA

CITY           SKY/WX    TMP DP  RH WIND       PRES   REMARKS
EVANSVILLE     CLOUDY    24   9  52 E6        30.39F WCI  17
6HR MIN TEMP:  23; 6HR MAX TEMP:  24; 6HR PCP: TRACE;

HUNTINGBURG *+ CLOUDY    19   9  63 E12       30.40F WCI   7
6HR MIN TEMP:  19; 6HR MAX TEMP:  19;

WASHINGTON +   LGT SNOW  18  12  77 E10       30.41F WCI   6
6HR MIN TEMP:  18; 6HR MAX TEMP:  20;


$$

INZ062-063-066-070>080-084-089>092-141300-
SOUTH CENTRAL AND SOUTHEAST INDIANA

CITY           SKY/WX    TMP DP  RH WIND       PRES   REMARKS
BEDFORD +      CLOUDY    18   7  62 E6        30.42  WCI   9
BLOOMINGTON    CLOUDY    17   4  56 SE8       30.40S WCI   7
6HR MIN TEMP:  16; 6HR MAX TEMP:  47; 6HR PCP: TRACE;

MADISON *+     CLOUDY    18   5  57 E8        30.45S WCI   7
NORTH VERNON + CLOUDY    16   5  62 CALM      30.44S
SEYMOUR +      CLOUDY    19   5  53 E8        30.44F WCI   9

$$





USA.gov is the U.S. government's official web portal to all federal, state and local government web resources and services.